Weather History for Lancaster, OH

Change the Weather History Date:

Thursday, March 27, 2014

  Actual Average Record
Temperature  
Mean Temperature 42 °F -  
Max Temperature 60 °F 54 °F 81 °F (2007)
Min Temperature 23 °F 29 °F 13 °F (1955)
Degree Days  
Heating Degree Days 24    
Moisture  
Dew Point 16 °F    
Average Humidity 37    
Maximum Humidity 72    
Minimum Humidity 20    
Precipitation  
Precipitation 0.00 in - - ()
Sea Level Pressure  
Sea Level Pressure 30.10 in    
Wind  
Wind Speed 9 mph (SSE)    
Max Wind Speed 22 mph    
Max Gust Speed 32 mph    
Visibility 10 miles    
Events      
Averages and records for this station are not official NWS values.
T = Trace of Precipitation, MM = Missing Value Source: NWS Daily Summary

Daily Weather History Graph

Daily Weather History Graph

Search for Another Location

Airport:

Trip Planner

Search our weather history database for the weather conditions in past years. The results will help you decide how hot, cold, wet, or windy it might be!

Date:

Astronomy

Mar. 27, 2014 Rise Set
Actual Time 7:22 AM EDT 7:49 PM EDT
Civil Twilight 6:55 AM EDT 8:16 PM EDT
Nautical Twilight 6:23 AM EDT 8:48 PM EDT
Astronomical Twilight 5:51 AM EDT 9:21 PM EDT
Moon 5:12 AM EDT (3/27) 4:36 PM EDT (3/27)
Length of Visible Light 13h 21m
Length of Day
12h 26m
Waning Crescent, 13% of the Moon is Illuminated
Mar 27
Waning Crescent
Mar 30
New
Apr 7
First Quarter
Apr 15
Full
Apr 22
Last Quarter

Hourly Weather History & Observations

Time (EDT) Temp. Windchill Dew Point Humidity Pressure Visibility Wind Dir Wind Speed Gust Speed Precip Events Conditions
12:53 AM 23.0 °F 17.0 °F 15.1 °F 72% 30.32 in 10.0 mi South 4.6 mph - N/A   Clear
1:53 AM 23.0 °F 15.8 °F 14.0 °F 68% 30.30 in 10.0 mi South 5.8 mph - N/A   Clear
2:53 AM 26.1 °F 18.4 °F 14.0 °F 60% 30.26 in 10.0 mi SSE 6.9 mph - N/A   Clear
3:53 AM 27.0 °F 19.5 °F 12.0 °F 53% 30.25 in 10.0 mi SE 6.9 mph - N/A   Clear
4:53 AM 27.0 °F 18.7 °F 12.0 °F 53% 30.23 in 10.0 mi SSE 8.1 mph - N/A   Clear
5:53 AM 28.0 °F 20.8 °F 12.0 °F 51% 30.24 in 10.0 mi SE 6.9 mph - N/A   Clear
6:53 AM 28.9 °F 21.9 °F 12.0 °F 49% 30.23 in 10.0 mi SSE 6.9 mph - N/A   Mostly Cloudy
7:53 AM 30.0 °F 23.2 °F 12.0 °F 47% 30.23 in 10.0 mi SE 6.9 mph - N/A   Scattered Clouds
8:53 AM 35.1 °F 27.4 °F 12.9 °F 40% 30.23 in 10.0 mi South 10.4 mph - N/A   Overcast
9:53 AM 37.0 °F 29.8 °F 14.0 °F 39% 30.21 in 10.0 mi SSE 10.4 mph - N/A   Overcast
10:53 AM 41.0 °F 35.2 °F 14.0 °F 33% 30.17 in 10.0 mi SSE 9.2 mph - N/A   Overcast
11:53 AM 43.0 °F 36.4 °F 16.0 °F 34% 30.15 in 10.0 mi South 12.7 mph 19.6 mph 0.00 in   Overcast
12:53 PM 48.0 °F - 14.0 °F 26% 30.12 in 10.0 mi South 11.5 mph - N/A   Overcast
1:53 PM 46.9 °F - 14.0 °F 27% 30.09 in 10.0 mi South 12.7 mph 20.7 mph N/A   Overcast
2:53 PM 46.9 °F - 19.0 °F 33% 30.06 in 10.0 mi SSE 12.7 mph - 0.00 in   Overcast
3:53 PM 50.0 °F - 18.0 °F 28% 30.03 in 10.0 mi South 12.7 mph - N/A   Overcast
4:53 PM 52.0 °F - 17.1 °F 25% 30.00 in 10.0 mi South 15.0 mph - N/A   Overcast
5:53 PM 52.0 °F - 17.1 °F 25% 29.98 in 10.0 mi South 12.7 mph - N/A   Overcast
6:53 PM 54.0 °F - 19.0 °F 25% 29.95 in 10.0 mi South 10.4 mph - N/A   Overcast
7:53 PM 54.0 °F - 19.0 °F 25% 29.90 in 10.0 mi SSE 16.1 mph - 0.00 in   Overcast
8:53 PM 55.0 °F - 19.0 °F 24% 29.87 in 10.0 mi SSE 11.5 mph - N/A   Overcast
9:53 PM 57.9 °F - 18.0 °F 21% 29.84 in 10.0 mi South 18.4 mph 24.2 mph N/A   Overcast
10:53 PM 60.1 °F - 19.0 °F 20% 29.83 in 10.0 mi South 21.9 mph 32.2 mph N/A   Overcast
11:53 PM 59.0 °F - 19.0 °F 21% 29.84 in 10.0 mi South 17.3 mph 25.3 mph N/A   Scattered Clouds